Hourly Data Report for September 24, 2017

All times are specified in Local Standard Time (LST). Add 1 hour to adjust for Daylight Saving Time where and when it is observed.

ALGONQUIN PARK EAST GATE
ONTARIO

45°32'00.000" N
78°16'00.000" W
397.00 m
6080192
71581
TNK

Download Data

Hourly Data (September 2017)
Hourly Data Report for September 24, 2017
Temp Definition
°C
Dew Point Temp Definition
°C
Rel Hum Definition
%
Wind Dir Definition
10's deg

Wind Spd Definition
km/h
Visibility Definition
km
Stn Press Definition
kPa
Hmdx Definition


Wind Chill Definition


Weather Definition


TIME
00:00 17.2 15.6 90 0 1   97.24     LegendNANA
01:00 16.4 15.0 92   0   97.30     LegendNANA
02:00 15.6 14.2 92   0   97.32     LegendNANA
03:00 15.1 13.8 92   0   97.32     LegendNANA
04:00 14.5 13.2 92   0   97.33     LegendNANA
05:00 14.0 12.7 92   0   97.36     LegendNANA
06:00 13.7 12.5 93   0   97.39     LegendNANA
07:00 14.4 13.2 93   0   97.40     LegendNANA
08:00 18.4 16.3 88 0 1   97.40     LegendNANA
09:00 23.1 18.8 77 22 1   97.39 30   LegendNANA
10:00 26.2 18.5 63 25 5   97.36 33   LegendNANA
11:00 28.1 17.4 52 31 3   97.35 34   LegendNANA
12:00 30.0 16.9 46 29 4   97.31 35   LegendNANA
13:00 30.2 14.9 39 31 5   97.29 34   LegendNANA
14:00 31.1 15.1 38 27 6   97.26 35   LegendNANA
15:00 30.3 14.3 38 29 6   97.24 34   LegendNANA
16:00 29.4 16.2 45 34 3   97.21 34   LegendNANA
17:00 26.6 18.0 60 0 1   97.21 33   LegendNANA
18:00 23.3 17.9 72   0   97.22 29   LegendNANA
19:00 21.2 17.8 81 0 1   97.25 27   LegendNANA
20:00 19.5 17.0 86   0   97.29     LegendNANA
21:00 18.2 16.1 87   0   97.30     LegendNANA
22:00 17.3 15.5 89   0   97.30     LegendNANA
23:00 16.2 14.5 89   0   97.29     LegendNANA

Notes on Data Quality.

Legend

  • E = Estimated
  • M = Missing
  • NA = Not Available
  • ‡ = Partner data that is not subject to review by the National Climate Archives
Date modified: